Precipitable_Water
0.51 0.51 0.50 0.50 0.50 0.51 0.51 0.52 0.52 0.52 0.52 0.52 0.52 0.52 0.52 0.51 0.50 0.49 0.49 0.48 0.50 0.55 0.57 0.57 0.57 0.57 0.57 0.56 0.56 0.57 0.56 0.45 0.34 0.29 0.22 0.25 0.30 0.42 0.40 0.55 0.66 0.75 0.75 0.80 0.83 0.83 0.87 0.91 0.87 0.96 0.99 1.00 0.99 1.00 1.18 1.43 1.58 1.51 1.24 1.16 1.02 1.10 1.02 1.16 1.17 1.20 1.21 1.12 1.17 1.26 1.34 1.29 1.16 1.30 1.33 1.47 1.37 1.33 1.27 1.22 1.17 1.18 1.16 1.20 1.23 1.28 1.31 1.37
0.51 0.51 0.51 0.51 0.51 0.51 0.52 0.53 0.53 0.52 0.52 0.52 0.53 0.52 0.52 0.52 0.51 0.49 0.49 0.49 0.51 0.54 0.57 0.58 0.58 0.59 0.60 0.58 0.60 0.61 0.55 0.43 0.30 0.30 0.24 0.33 0.27 0.40 0.47 0.56 0.63 0.63 0.70 0.68 0.65 0.77 0.80 0.82 0.81 0.89 0.89 0.94 0.90 0.95 1.17 1.33 1.57 1.25 1.23 1.22 1.05 1.12 1.15 1.31 1.31 1.34 1.23 1.21 1.27 1.31 1.33 1.34 1.29 1.36 1.34 1.29 1.23 1.23 1.16 1.15 1.13 1.03 1.09 1.18 1.21 1.21 1.25 1.30
0.50 0.51 0.51 0.51 0.51 0.51 0.51 0.51 0.52 0.53 0.53 0.53 0.52 0.52 0.53 0.53 0.52 0.50 0.51 0.52 0.51 0.53 0.57 0.58 0.59 0.61 0.61 0.62 0.64 0.65 0.56 0.39 0.37 0.25 0.31 0.32 0.29 0.41 0.49 0.56 0.58 0.60 0.69 0.55 0.61 0.70 0.77 0.77 0.78 0.82 0.90 0.85 0.87 0.83 0.99 1.22 1.49 1.33 1.28 1.12 1.16 1.27 1.21 1.32 1.32 1.30 1.37 1.35 1.26 1.27 1.31 1.35 1.34 1.45 1.40 1.31 1.17 1.22 1.16 1.10 1.09 1.01 0.94 1.04 1.11 1.17 1.20 1.26
0.50 0.50 0.50 0.50 0.50 0.50 0.50 0.50 0.51 0.52 0.53 0.53 0.53 0.52 0.53 0.53 0.52 0.51 0.52 0.53 0.53 0.53 0.57 0.59 0.60 0.61 0.63 0.65 0.68 0.69 0.55 0.38 0.30 0.33 0.38 0.31 0.34 0.40 0.48 0.55 0.57 0.60 0.53 0.52 0.58 0.70 0.77 0.78 0.77 0.82 0.82 0.79 0.71 0.76 0.94 1.02 1.31 1.22 1.24 1.12 1.18 1.29 1.22 1.30 1.35 1.37 1.42 1.43 1.34 1.32 1.31 1.31 1.38 1.44 1.39 1.30 1.19 1.21 1.22 1.26 1.18 1.04 1.00 1.01 1.07 1.13 1.17 1.22
0.51 0.50 0.50 0.49 0.48 0.48 0.49 0.49 0.50 0.50 0.51 0.52 0.52 0.52 0.53 0.52 0.52 0.51 0.52 0.52 0.53 0.53 0.55 0.60 0.61 0.62 0.64 0.66 0.69 0.66 0.43 0.35 0.31 0.47 0.48 0.39 0.43 0.40 0.48 0.54 0.55 0.55 0.49 0.46 0.49 0.70 0.74 0.73 0.71 0.78 0.77 0.69 0.61 0.76 0.73 0.89 1.15 1.27 1.12 1.22 1.26 1.27 1.22 1.37 1.41 1.44 1.42 1.43 1.37 1.30 1.22 1.33 1.46 1.43 1.37 1.32 1.21 1.19 1.30 1.35 1.30 1.21 1.13 1.04 1.03 1.09 1.17 1.19
0.53 0.52 0.51 0.50 0.49 0.48 0.49 0.49 0.49 0.50 0.50 0.51 0.52 0.52 0.52 0.52 0.52 0.52 0.51 0.52 0.52 0.52 0.54 0.60 0.63 0.63 0.64 0.66 0.66 0.60 0.40 0.22 0.39 0.53 0.61 0.47 0.50 0.48 0.50 0.53 0.55 0.54 0.48 0.41 0.52 0.71 0.72 0.67 0.63 0.69 0.72 0.64 0.54 0.56 0.63 0.89 1.04 1.04 1.17 1.22 1.28 1.32 1.26 1.43 1.48 1.46 1.44 1.36 1.29 1.22 1.36 1.41 1.43 1.37 1.42 1.37 1.30 1.38 1.49 1.49 1.44 1.34 1.23 1.16 1.14 1.10 1.13 1.17
0.54 0.52 0.51 0.50 0.49 0.48 0.48 0.48 0.48 0.49 0.49 0.50 0.51 0.51 0.51 0.52 0.52 0.52 0.52 0.50 0.51 0.52 0.53 0.59 0.63 0.64 0.63 0.65 0.63 0.47 0.34 0.32 0.42 0.60 0.67 0.56 0.55 0.56 0.56 0.55 0.53 0.49 0.45 0.37 0.44 0.63 0.67 0.58 0.57 0.67 0.64 0.60 0.52 0.53 0.68 0.79 1.01 1.03 1.05 1.21 1.24 1.34 1.30 1.43 1.47 1.50 1.46 1.41 1.37 1.44 1.44 1.35 1.34 1.24 1.44 1.34 1.41 1.49 1.55 1.55 1.57 1.53 1.37 1.27 1.15 1.11 1.11 1.16
0.54 0.52 0.50 0.49 0.49 0.48 0.47 0.48 0.48 0.48 0.48 0.49 0.50 0.51 0.52 0.53 0.53 0.53 0.53 0.52 0.51 0.50 0.53 0.60 0.63 0.63 0.65 0.58 0.46 0.38 0.30 0.30 0.45 0.67 0.63 0.58 0.62 0.62 0.58 0.52 0.46 0.44 0.40 0.32 0.35 0.54 0.61 0.52 0.52 0.61 0.63 0.59 0.50 0.53 0.76 0.88 0.92 0.94 1.02 1.16 1.22 1.31 1.34 1.41 1.48 1.47 1.50 1.50 1.52 1.47 1.35 1.35 1.40 1.38 1.38 1.33 1.40 1.47 1.50 1.56 1.60 1.60 1.51 1.34 1.22 1.14 1.17 1.19
0.56 0.53 0.51 0.49 0.48 0.48 0.48 0.48 0.48 0.48 0.48 0.48 0.50 0.52 0.53 0.54 0.54 0.55 0.55 0.54 0.54 0.53 0.54 0.61 0.62 0.64 0.69 0.56 0.40 0.32 0.31 0.41 0.56 0.62 0.64 0.57 0.62 0.61 0.54 0.42 0.42 0.36 0.34 0.30 0.32 0.50 0.57 0.55 0.39 0.52 0.58 0.59 0.54 0.60 0.68 0.80 0.88 0.95 1.01 1.13 1.16 1.20 1.35 1.39 1.39 1.42 1.43 1.49 1.51 1.40 1.34 1.41 1.46 1.51 1.34 1.38 1.41 1.46 1.51 1.51 1.55 1.57 1.53 1.40 1.31 1.23 1.20 1.24
0.59 0.57 0.54 0.52 0.50 0.48 0.48 0.48 0.48 0.48 0.48 0.49 0.50 0.52 0.53 0.54 0.54 0.55 0.56 0.57 0.57 0.55 0.55 0.59 0.62 0.68 0.62 0.47 0.40 0.31 0.41 0.60 0.60 0.66 0.62 0.60 0.62 0.53 0.46 0.46 0.39 0.34 0.27 0.25 0.31 0.53 0.55 0.45 0.39 0.52 0.62 0.53 0.53 0.61 0.73 0.82 0.85 1.05 1.02 1.17 1.24 1.34 1.37 1.39 1.32 1.33 1.40 1.43 1.49 1.31 1.29 1.36 1.51 1.35 1.19 1.41 1.44 1.47 1.47 1.45 1.53 1.55 1.52 1.49 1.39 1.37 1.30 1.29
0.62 0.60 0.58 0.55 0.52 0.50 0.49 0.48 0.48 0.48 0.48 0.49 0.51 0.52 0.52 0.53 0.56 0.57 0.59 0.60 0.60 0.60 0.60 0.63 0.67 0.65 0.50 0.49 0.29 0.29 0.49 0.58 0.67 0.63 0.58 0.50 0.41 0.38 0.37 0.37 0.37 0.29 0.24 0.23 0.34 0.60 0.49 0.45 0.43 0.50 0.58 0.46 0.51 0.58 0.74 0.92 1.02 1.10 1.10 1.15 1.23 1.31 1.38 1.37 1.35 1.33 1.38 1.36 1.47 1.40 1.29 1.35 1.36 1.27 1.21 1.37 1.42 1.45 1.43 1.43 1.47 1.56 1.60 1.58 1.50 1.43 1.38 1.34
0.62 0.61 0.60 0.57 0.54 0.51 0.50 0.49 0.48 0.48 0.49 0.50 0.50 0.51 0.52 0.54 0.57 0.59 0.59 0.60 0.59 0.59 0.59 0.62 0.66 0.66 0.59 0.45 0.35 0.35 0.50 0.52 0.58 0.58 0.47 0.40 0.32 0.32 0.33 0.32 0.31 0.26 0.20 0.22 0.41 0.52 0.49 0.48 0.45 0.45 0.46 0.53 0.43 0.61 0.84 1.13 1.09 1.10 1.13 1.04 1.12 1.23 1.18 1.27 1.23 1.31 1.36 1.32 1.43 1.40 1.18 1.11 1.20 1.12 1.32 1.37 1.38 1.40 1.42 1.42 1.47 1.58 1.61 1.57 1.59 1.50 1.41 1.37
0.59 0.60 0.60 0.58 0.55 0.52 0.50 0.49 0.48 0.47 0.48 0.49 0.49 0.50 0.54 0.57 0.58 0.60 0.62 0.61 0.62 0.61 0.64 0.66 0.69 0.66 0.51 0.45 0.39 0.48 0.59 0.61 0.60 0.47 0.43 0.38 0.27 0.24 0.28 0.29 0.27 0.25 0.32 0.43 0.43 0.45 0.48 0.46 0.44 0.41 0.50 0.46 0.49 0.55 0.91 1.12 1.11 1.08 1.05 1.01 1.02 1.00 1.00 1.20 1.27 1.30 1.24 1.33 1.38 1.28 0.80 0.88 1.08 1.22 1.32 1.39 1.34 1.35 1.37 1.42 1.45 1.45 1.50 1.67 1.70 1.55 1.46 1.46
0.54 0.57 0.58 0.58 0.56 0.53 0.50 0.49 0.48 0.47 0.47 0.48 0.49 0.54 0.58 0.60 0.63 0.65 0.64 0.63 0.63 0.65 0.69 0.71 0.72 0.64 0.50 0.35 0.43 0.54 0.57 0.59 0.53 0.39 0.36 0.35 0.29 0.26 0.26 0.25 0.28 0.32 0.44 0.40 0.40 0.44 0.45 0.45 0.42 0.43 0.46 0.43 0.49 0.68 0.87 0.91 1.02 0.95 1.01 0.92 0.86 0.82 0.80 1.04 1.09 1.12 1.08 1.32 1.29 1.25 0.83 0.87 1.02 1.18 1.26 1.35 1.36 1.27 1.27 1.33 1.37 1.45 1.54 1.54 1.53 1.55 1.50 1.51
0.51 0.51 0.53 0.55 0.56 0.53 0.50 0.48 0.47 0.45 0.46 0.46 0.52 0.57 0.61 0.61 0.62 0.62 0.63 0.61 0.65 0.68 0.71 0.77 0.74 0.57 0.49 0.40 0.50 0.55 0.53 0.51 0.39 0.36 0.38 0.35 0.32 0.28 0.30 0.31 0.31 0.35 0.39 0.39 0.39 0.40 0.42 0.43 0.39 0.37 0.38 0.44 0.48 0.53 0.69 0.80 0.80 0.90 0.72 0.75 0.76 0.67 0.83 0.95 1.03 0.97 0.95 1.20 1.23 1.10 0.91 0.83 1.00 1.06 1.19 1.29 1.35 1.31 1.26 1.35 1.45 1.38 1.32 1.44 1.50 1.51 1.47 1.52
0.51 0.50 0.50 0.51 0.54 0.54 0.51 0.48 0.45 0.45 0.44 0.46 0.54 0.60 0.61 0.60 0.59 0.60 0.63 0.65 0.69 0.71 0.78 0.64 0.60 0.54 0.38 0.35 0.43 0.55 0.45 0.38 0.35 0.41 0.41 0.41 0.39 0.36 0.34 0.33 0.34 0.36 0.36 0.36 0.39 0.39 0.39 0.39 0.34 0.34 0.37 0.41 0.45 0.51 0.60 0.60 0.69 0.67 0.71 0.70 0.60 0.61 0.72 0.86 0.86 0.98 1.00 1.02 1.12 1.00 0.85 0.95 0.96 1.12 1.18 1.27 1.32 1.32 1.28 1.35 1.49 1.38 1.37 1.43 1.51 1.55 1.52 1.50
0.50 0.50 0.49 0.49 0.50 0.54 0.53 0.48 0.44 0.43 0.43 0.46 0.55 0.62 0.63 0.62 0.61 0.62 0.65 0.67 0.68 0.74 0.67 0.55 0.56 0.55 0.40 0.42 0.56 0.40 0.32 0.38 0.41 0.41 0.41 0.43 0.40 0.40 0.37 0.32 0.30 0.33 0.35 0.36 0.33 0.33 0.32 0.31 0.33 0.34 0.37 0.34 0.39 0.49 0.47 0.49 0.51 0.54 0.56 0.57 0.54 0.52 0.51 0.67 0.81 0.99 0.98 0.94 0.94 1.00 0.90 0.88 0.91 1.10 1.18 1.22 1.26 1.23 1.24 1.28 1.38 1.36 1.42 1.44 1.47 1.53 1.50 1.47
0.48 0.49 0.49 0.49 0.48 0.50 0.53 0.50 0.43 0.41 0.43 0.47 0.55 0.59 0.59 0.63 0.64 0.62 0.63 0.65 0.69 0.69 0.69 0.70 0.59 0.43 0.33 0.43 0.36 0.34 0.35 0.35 0.36 0.40 0.41 0.42 0.43 0.39 0.36 0.29 0.26 0.29 0.31 0.29 0.29 0.24 0.27 0.26 0.30 0.27 0.28 0.31 0.37 0.43 0.41 0.41 0.41 0.43 0.49 0.52 0.55 0.55 0.64 0.60 0.60 0.88 0.91 0.87 0.86 0.92 0.86 0.88 0.94 1.02 1.10 1.15 1.27 1.26 1.25 1.30 1.31 1.31 1.39 1.41 1.46 1.49 1.47 1.43
0.46 0.47 0.49 0.49 0.48 0.48 0.50 0.50 0.44 0.40 0.43 0.49 0.58 0.65 0.67 0.67 0.64 0.58 0.49 0.52 0.43 0.40 0.34 0.45 0.42 0.28 0.26 0.33 0.36 0.36 0.38 0.41 0.40 0.39 0.36 0.38 0.40 0.40 0.37 0.35 0.28 0.23 0.23 0.21 0.24 0.22 0.24 0.23 0.27 0.25 0.23 0.25 0.30 0.40 0.42 0.40 0.42 0.38 0.38 0.41 0.44 0.47 0.45 0.52 0.59 0.86 0.81 0.83 0.78 0.85 0.85 0.79 0.89 0.95 1.02 1.13 1.19 1.20 1.23 1.29 1.35 1.33 1.31 1.40 1.43 1.43 1.45 1.45
0.44 0.45 0.47 0.48 0.48 0.48 0.49 0.49 0.45 0.40 0.44 0.45 0.50 0.50 0.47 0.40 0.35 0.32 0.43 0.44 0.33 0.29 0.32 0.36 0.41 0.35 0.36 0.35 0.33 0.40 0.43 0.41 0.31 0.35 0.39 0.40 0.36 0.34 0.32 0.30 0.26 0.24 0.21 0.16 0.21 0.19 0.22 0.17 0.19 0.20 0.23 0.26 0.30 0.36 0.39 0.39 0.40 0.38 0.35 0.39 0.37 0.43 0.49 0.58 0.72 0.84 0.87 0.81 0.80 0.85 0.78 0.77 0.89 0.96 1.02 1.09 1.13 1.15 1.19 1.20 1.26 1.34 1.31 1.30 1.36 1.37 1.41 1.45
0.43 0.43 0.45 0.46 0.47 0.47 0.48 0.48 0.44 0.41 0.44 0.41 0.42 0.35 0.24 0.23 0.18 0.22 0.27 0.31 0.32 0.34 0.32 0.34 0.35 0.35 0.36 0.38 0.37 0.34 0.29 0.29 0.34 0.32 0.36 0.41 0.37 0.31 0.26 0.25 0.22 0.19 0.20 0.20 0.18 0.19 0.15 0.13 0.15 0.20 0.25 0.27 0.27 0.35 0.39 0.40 0.38 0.38 0.36 0.36 0.35 0.40 0.45 0.55 0.66 0.84 0.85 0.81 0.77 0.78 0.70 0.75 0.83 0.94 1.03 1.06 1.04 1.05 1.12 1.18 1.22 1.28 1.33 1.34 1.33 1.35 1.39 1.49
0.44 0.43 0.43 0.45 0.46 0.46 0.48 0.47 0.43 0.42 0.42 0.42 0.36 0.29 0.28 0.29 0.33 0.38 0.33 0.25 0.29 0.32 0.33 0.34 0.39 0.34 0.40 0.39 0.40 0.41 0.35 0.26 0.26 0.30 0.37 0.37 0.32 0.29 0.26 0.25 0.21 0.21 0.20 0.18 0.16 0.14 0.13 0.11 0.13 0.17 0.21 0.24 0.28 0.33 0.34 0.36 0.36 0.37 0.35 0.33 0.35 0.40 0.49 0.62 0.71 0.74 0.84 0.81 0.74 0.76 0.67 0.71 0.79 0.87 0.92 0.98 1.01 1.09 1.16 1.22 1.27 1.27 1.28 1.30 1.32 1.43 1.50 1.51
0.46 0.44 0.42 0.44 0.45 0.46 0.46 0.47 0.42 0.42 0.38 0.38 0.33 0.29 0.30 0.37 0.43 0.46 0.40 0.31 0.27 0.33 0.31 0.33 0.32 0.33 0.34 0.40 0.41 0.40 0.30 0.27 0.24 0.28 0.32 0.34 0.30 0.29 0.26 0.24 0.23 0.23 0.21 0.20 0.17 0.16 0.13 0.14 0.13 0.15 0.19 0.22 0.26 0.29 0.31 0.33 0.37 0.35 0.33 0.34 0.31 0.37 0.40 0.54 0.58 0.69 0.75 0.70 0.70 0.69 0.61 0.66 0.79 0.81 0.82 0.91 0.93 1.02 1.13 1.18 1.23 1.29 1.26 1.27 1.31 1.39 1.42 1.46
0.49 0.45 0.43 0.42 0.44 0.45 0.46 0.45 0.43 0.41 0.34 0.29 0.32 0.31 0.38 0.42 0.45 0.44 0.36 0.26 0.24 0.30 0.33 0.35 0.36 0.35 0.34 0.33 0.39 0.37 0.31 0.30 0.29 0.26 0.37 0.33 0.29 0.30 0.27 0.25 0.24 0.24 0.22 0.22 0.21 0.21 0.21 0.25 0.22 0.16 0.18 0.20 0.22 0.25 0.28 0.32 0.32 0.32 0.31 0.31 0.33 0.31 0.34 0.36 0.56 0.68 0.64 0.67 0.69 0.59 0.56 0.57 0.71 0.71 0.73 0.85 0.88 0.92 1.02 1.09 1.15 1.21 1.26 1.33 1.38 1.41 1.46 1.45
0.52 0.48 0.44 0.43 0.41 0.45 0.45 0.44 0.36 0.32 0.32 0.30 0.30 0.38 0.41 0.46 0.46 0.47 0.32 0.30 0.31 0.29 0.40 0.37 0.38 0.37 0.39 0.44 0.43 0.35 0.34 0.36 0.33 0.34 0.35 0.33 0.29 0.27 0.27 0.29 0.27 0.24 0.24 0.25 0.24 0.21 0.21 0.23 0.21 0.16 0.17 0.20 0.21 0.23 0.28 0.33 0.28 0.25 0.29 0.32 0.32 0.29 0.33 0.47 0.51 0.49 0.51 0.59 0.66 0.58 0.35 0.50 0.69 0.61 0.65 0.71 0.77 0.77 0.91 0.92 1.01 1.07 1.16 1.23 1.26 1.31 1.44 1.49
0.53 0.52 0.47 0.44 0.43 0.41 0.46 0.36 0.35 0.34 0.30 0.27 0.31 0.39 0.44 0.47 0.47 0.46 0.33 0.24 0.24 0.31 0.32 0.26 0.38 0.33 0.44 0.35 0.38 0.40 0.34 0.28 0.34 0.35 0.36 0.34 0.35 0.31 0.28 0.25 0.28 0.24 0.25 0.25 0.24 0.24 0.23 0.22 0.21 0.18 0.18 0.20 0.22 0.25 0.35 0.36 0.26 0.24 0.26 0.29 0.28 0.27 0.34 0.44 0.50 0.37 0.32 0.33 0.64 0.67 0.27 0.38 0.60 0.62 0.54 0.63 0.65 0.69 0.81 0.84 0.91 0.99 1.07 1.15 1.21 1.30 1.40 1.49
0.55 0.55 0.53 0.48 0.45 0.44 0.31 0.32 0.41 0.37 0.27 0.27 0.33 0.41 0.43 0.44 0.49 0.42 0.26 0.25 0.20 0.35 0.26 0.35 0.30 0.37 0.38 0.40 0.36 0.36 0.21 0.25 0.34 0.36 0.34 0.39 0.31 0.37 0.27 0.26 0.28 0.28 0.28 0.28 0.23 0.20 0.22 0.22 0.21 0.20 0.18 0.20 0.25 0.29 0.30 0.28 0.24 0.23 0.27 0.25 0.25 0.25 0.28 0.35 0.41 0.36 0.32 0.47 0.64 0.60 0.46 0.32 0.44 0.66 0.60 0.62 0.63 0.69 0.73 0.84 0.89 0.97 1.02 1.08 1.16 1.26 1.35 1.46
0.57 0.58 0.58 0.56 0.51 0.47 0.33 0.38 0.37 0.30 0.27 0.32 0.38 0.39 0.42 0.45 0.44 0.42 0.25 0.15 0.19 0.39 0.29 0.31 0.31 0.42 0.34 0.38 0.38 0.29 0.29 0.32 0.24 0.30 0.36 0.38 0.35 0.32 0.30 0.26 0.27 0.27 0.28 0.27 0.23 0.25 0.25 0.22 0.22 0.20 0.22 0.21 0.25 0.26 0.27 0.26 0.23 0.29 0.30 0.27 0.27 0.30 0.34 0.37 0.37 0.39 0.42 0.40 0.38 0.49 0.56 0.27 0.32 0.60 0.62 0.60 0.60 0.60 0.68 0.76 0.83 0.93 0.99 1.07 1.16 1.22 1.32 1.42
0.56 0.58 0.59 0.59 0.57 0.54 0.49 0.40 0.40 0.32 0.36 0.37 0.38 0.39 0.39 0.42 0.37 0.25 0.24 0.16 0.33 0.31 0.41 0.31 0.38 0.34 0.32 0.36 0.32 0.31 0.28 0.30 0.24 0.33 0.35 0.37 0.36 0.33 0.28 0.28 0.29 0.27 0.29 0.26 0.24 0.26 0.27 0.26 0.24 0.24 0.22 0.23 0.24 0.24 0.25 0.24 0.21 0.29 0.35 0.34 0.34 0.34 0.31 0.37 0.35 0.38 0.40 0.28 0.26 0.37 0.43 0.22 0.30 0.50 0.64 0.65 0.55 0.63 0.69 0.76 0.85 0.92 0.98 1.04 1.15 1.23 1.30 1.39
0.58 0.58 0.59 0.59 0.54 0.55 0.51 0.50 0.40 0.43 0.41 0.40 0.38 0.40 0.36 0.34 0.29 0.17 0.16 0.12 0.33 0.25 0.31 0.32 0.30 0.28 0.30 0.27 0.28 0.30 0.27 0.28 0.28 0.31 0.32 0.30 0.31 0.33 0.33 0.34 0.30 0.27 0.26 0.27 0.24 0.27 0.29 0.30 0.31 0.26 0.23 0.26 0.24 0.25 0.25 0.25 0.33 0.31 0.34 0.32 0.33 0.34 0.37 0.34 0.33 0.36 0.35 0.25 0.26 0.35 0.33 0.25 0.20 0.47 0.59 0.52 0.58 0.65 0.72 0.83 0.90 0.99 1.04 1.10 1.16 1.19 1.27 1.32
0.61 0.60 0.60 0.60 0.46 0.49 0.47 0.41 0.48 0.51 0.49 0.45 0.41 0.39 0.32 0.28 0.20 0.17 0.13 0.21 0.29 0.30 0.31 0.30 0.27 0.30 0.26 0.24 0.23 0.28 0.28 0.29 0.27 0.28 0.27 0.29 0.28 0.29 0.31 0.28 0.31 0.27 0.26 0.26 0.23 0.25 0.26 0.30 0.28 0.29 0.30 0.28 0.27 0.25 0.27 0.31 0.33 0.31 0.31 0.31 0.31 0.32 0.33 0.32 0.33 0.33 0.23 0.23 0.34 0.39 0.31 0.37 0.19 0.45 0.52 0.65 0.66 0.75 0.74 0.76 0.84 0.90 0.99 1.05 1.10 1.17 1.22 1.32
0.62 0.61 0.61 0.57 0.55 0.58 0.39 0.37 0.47 0.56 0.50 0.44 0.39 0.29 0.25 0.18 0.18 0.14 0.13 0.26 0.20 0.30 0.25 0.25 0.28 0.26 0.25 0.26 0.25 0.25 0.24 0.26 0.28 0.26 0.24 0.23 0.24 0.23 0.26 0.25 0.27 0.22 0.21 0.22 0.23 0.24 0.23 0.25 0.30 0.28 0.32 0.28 0.27 0.24 0.26 0.29 0.30 0.27 0.26 0.26 0.21 0.25 0.29 0.23 0.30 0.23 0.27 0.22 0.40 0.37 0.35 0.26 0.25 0.54 0.62 0.60 0.70 0.75 0.83 0.88 0.87 0.92 0.97 1.02 1.09 1.10 1.20 1.29
0.61 0.60 0.58 0.56 0.59 0.52 0.51 0.51 0.52 0.50 0.47 0.41 0.34 0.28 0.20 0.17 0.15 0.15 0.14 0.17 0.21 0.31 0.29 0.31 0.27 0.26 0.26 0.24 0.23 0.24 0.26 0.23 0.27 0.25 0.24 0.25 0.23 0.25 0.28 0.26 0.29 0.24 0.22 0.26 0.23 0.20 0.23 0.27 0.26 0.28 0.28 0.29 0.28 0.23 0.27 0.23 0.25 0.24 0.21 0.22 0.20 0.18 0.20 0.17 0.20 0.24 0.20 0.23 0.32 0.27 0.39 0.20 0.49 0.57 0.63 0.64 0.75 0.86 0.92 0.93 0.96 0.95 0.97 1.02 1.06 1.11 1.16 1.22
0.60 0.59 0.52 0.57 0.60 0.62 0.64 0.67 0.62 0.58 0.46 0.39 0.30 0.22 0.20 0.16 0.15 0.29 0.17 0.16 0.25 0.30 0.32 0.31 0.30 0.28 0.26 0.23 0.23 0.24 0.22 0.24 0.24 0.24 0.23 0.23 0.21 0.22 0.25 0.26 0.26 0.26 0.23 0.24 0.22 0.22 0.19 0.23 0.25 0.25 0.23 0.29 0.28 0.28 0.29 0.28 0.27 0.25 0.25 0.22 0.23 0.22 0.19 0.19 0.21 0.19 0.22 0.30 0.37 0.44 0.28 0.31 0.35 0.60 0.85 0.84 0.89 0.90 0.94 0.98 0.99 1.00 1.02 1.04 1.09 1.12 1.13 1.17
0.62 0.58 0.57 0.60 0.61 0.65 0.68 0.72 0.68 0.57 0.49 0.38 0.27 0.20 0.16 0.16 0.16 0.18 0.17 0.19 0.21 0.26 0.27 0.31 0.28 0.26 0.24 0.24 0.26 0.25 0.24 0.22 0.24 0.24 0.22 0.21 0.20 0.19 0.23 0.24 0.26 0.26 0.26 0.20 0.23 0.22 0.21 0.26 0.30 0.29 0.30 0.30 0.29 0.32 0.33 0.30 0.27 0.30 0.30 0.28 0.23 0.24 0.30 0.21 0.31 0.28 0.28 0.28 0.30 0.40 0.37 0.54 0.53 0.84 0.83 0.89 0.86 0.92 0.95 0.95 1.01 1.00 1.00 1.00 1.02 1.01 1.05 1.10
0.60 0.57 0.61 0.56 0.56 0.65 0.70 0.74 0.73 0.53 0.47 0.36 0.24 0.19 0.18 0.19 0.17 0.17 0.22 0.27 0.23 0.19 0.23 0.26 0.27 0.25 0.24 0.23 0.25 0.23 0.25 0.22 0.23 0.23 0.22 0.22 0.23 0.21 0.24 0.25 0.26 0.26 0.25 0.21 0.31 0.22 0.23 0.23 0.31 0.30 0.32 0.31 0.32 0.35 0.34 0.33 0.27 0.36 0.29 0.28 0.32 0.39 0.30 0.31 0.29 0.30 0.29 0.22 0.24 0.41 0.36 0.55 0.66 0.72 0.79 0.83 0.84 0.86 0.90 0.91 0.94 0.96 0.94 0.96 0.94 0.93 0.93 0.98
0.55 0.54 0.58 0.57 0.59 0.69 0.72 0.74 0.71 0.50 0.44 0.37 0.25 0.20 0.22 0.22 0.22 0.22 0.26 0.21 0.22 0.22 0.21 0.21 0.25 0.24 0.23 0.22 0.22 0.22 0.23 0.23 0.22 0.21 0.20 0.23 0.21 0.22 0.23 0.25 0.27 0.27 0.27 0.25 0.25 0.30 0.27 0.28 0.31 0.28 0.28 0.33 0.37 0.38 0.38 0.37 0.38 0.33 0.28 0.37 0.37 0.38 0.38 0.31 0.29 0.35 0.29 0.23 0.32 0.31 0.30 0.37 0.42 0.45 0.70 0.72 0.75 0.80 0.80 0.87 0.89 0.87 0.91 0.89 0.87 0.88 0.89 0.90
0.54 0.50 0.55 0.53 0.60 0.69 0.74 0.74 0.64 0.47 0.40 0.33 0.26 0.24 0.33 0.21 0.23 0.22 0.27 0.24 0.22 0.22 0.20 0.20 0.24 0.26 0.24 0.22 0.21 0.22 0.23 0.20 0.21 0.21 0.20 0.22 0.20 0.25 0.24 0.23 0.27 0.27 0.28 0.29 0.26 0.30 0.28 0.23 0.28 0.32 0.33 0.35 0.38 0.38 0.36 0.38 0.38 0.35 0.39 0.43 0.32 0.34 0.30 0.34 0.24 0.24 0.24 0.25 0.27 0.33 0.29 0.30 0.31 0.43 0.56 0.63 0.68 0.77 0.78 0.80 0.79 0.78 0.82 0.83 0.83 0.87 0.92 0.94
0.60 0.51 0.51 0.56 0.66 0.64 0.65 0.68 0.56 0.42 0.35 0.30 0.28 0.26 0.31 0.23 0.30 0.24 0.24 0.22 0.21 0.21 0.19 0.22 0.21 0.25 0.26 0.23 0.22 0.22 0.22 0.19 0.21 0.20 0.19 0.22 0.19 0.25 0.24 0.25 0.26 0.27 0.29 0.30 0.26 0.30 0.29 0.25 0.29 0.32 0.32 0.35 0.35 0.33 0.28 0.35 0.39 0.40 0.39 0.36 0.36 0.33 0.39 0.34 0.32 0.35 0.25 0.27 0.24 0.28 0.28 0.31 0.34 0.44 0.46 0.57 0.65 0.72 0.74 0.77 0.73 0.77 0.77 0.79 0.83 0.83 0.85 0.90
0.51 0.45 0.52 0.63 0.69 0.69 0.65 0.57 0.47 0.38 0.34 0.29 0.29 0.28 0.34 0.27 0.26 0.25 0.24 0.22 0.21 0.18 0.19 0.20 0.24 0.23 0.26 0.26 0.25 0.22 0.23 0.22 0.22 0.21 0.20 0.24 0.20 0.29 0.25 0.27 0.26 0.27 0.30 0.31 0.30 0.31 0.28 0.28 0.23 0.31 0.32 0.33 0.29 0.33 0.30 0.35 0.35 0.34 0.32 0.33 0.34 0.34 0.41 0.35 0.37 0.31 0.27 0.26 0.24 0.20 0.21 0.33 0.39 0.41 0.49 0.54 0.64 0.68 0.71 0.70 0.72 0.72 0.75 0.76 0.77 0.77 0.79 0.83
0.55 0.46 0.51 0.69 0.72 0.72 0.63 0.51 0.38 0.33 0.31 0.32 0.33 0.32 0.32 0.27 0.26 0.24 0.25 0.26 0.24 0.24 0.21 0.21 0.22 0.23 0.26 0.25 0.24 0.26 0.25 0.23 0.23 0.22 0.22 0.22 0.22 0.21 0.26 0.26 0.27 0.27 0.32 0.31 0.30 0.31 0.28 0.27 0.23 0.27 0.25 0.24 0.30 0.36 0.36 0.37 0.40 0.37 0.35 0.34 0.36 0.33 0.30 0.25 0.30 0.34 0.32 0.26 0.24 0.22 0.22 0.32 0.38 0.48 0.54 0.57 0.64 0.66 0.68 0.68 0.68 0.72 0.71 0.74 0.75 0.76 0.78 0.78
0.53 0.39 0.51 0.74 0.78 0.67 0.55 0.39 0.37 0.39 0.33 0.30 0.28 0.29 0.29 0.32 0.28 0.27 0.28 0.29 0.24 0.25 0.27 0.22 0.24 0.24 0.25 0.25 0.24 0.25 0.25 0.24 0.24 0.23 0.23 0.21 0.24 0.23 0.29 0.29 0.28 0.30 0.30 0.28 0.29 0.32 0.33 0.30 0.25 0.24 0.24 0.29 0.31 0.34 0.37 0.38 0.38 0.38 0.37 0.36 0.38 0.37 0.35 0.29 0.24 0.36 0.30 0.30 0.26 0.28 0.21 0.35 0.49 0.48 0.59 0.59 0.61 0.65 0.66 0.66 0.69 0.73 0.73 0.75 0.75 0.76 0.80 0.82
0.50 0.46 0.61 0.65 0.73 0.58 0.46 0.38 0.38 0.35 0.33 0.32 0.35 0.32 0.34 0.34 0.32 0.37 0.31 0.31 0.25 0.27 0.25 0.22 0.23 0.25 0.26 0.25 0.25 0.25 0.26 0.25 0.25 0.23 0.23 0.23 0.23 0.25 0.29 0.29 0.30 0.30 0.30 0.31 0.32 0.32 0.31 0.26 0.24 0.26 0.27 0.28 0.31 0.32 0.36 0.37 0.37 0.33 0.34 0.37 0.37 0.33 0.34 0.32 0.30 0.35 0.29 0.34 0.28 0.31 0.25 0.35 0.50 0.55 0.63 0.62 0.68 0.73 0.75 0.74 0.74 0.76 0.75 0.75 0.75 0.74 0.77 0.78
0.55 0.54 0.57 0.69 0.74 0.63 0.43 0.34 0.35 0.34 0.32 0.35 0.32 0.41 0.42 0.43 0.41 0.39 0.35 0.38 0.31 0.30 0.25 0.24 0.24 0.24 0.27 0.31 0.28 0.26 0.29 0.23 0.27 0.25 0.24 0.25 0.24 0.28 0.28 0.29 0.29 0.28 0.27 0.30 0.27 0.33 0.25 0.30 0.27 0.25 0.24 0.26 0.27 0.29 0.29 0.34 0.34 0.31 0.33 0.38 0.36 0.36 0.37 0.34 0.33 0.34 0.25 0.31 0.28 0.26 0.23 0.35 0.47 0.59 0.61 0.62 0.64 0.65 0.69 0.75 0.78 0.76 0.73 0.74 0.74 0.75 0.75 0.74
0.60 0.62 0.58 0.67 0.73 0.59 0.42 0.44 0.42 0.39 0.36 0.35 0.38 0.33 0.40 0.42 0.45 0.46 0.47 0.44 0.44 0.38 0.35 0.29 0.26 0.30 0.28 0.30 0.30 0.30 0.31 0.27 0.29 0.27 0.26 0.27 0.25 0.29 0.29 0.29 0.30 0.29 0.29 0.36 0.34 0.34 0.26 0.30 0.25 0.23 0.21 0.20 0.21 0.23 0.26 0.28 0.29 0.29 0.32 0.37 0.36 0.33 0.33 0.30 0.26 0.31 0.23 0.34 0.30 0.26 0.26 0.43 0.50 0.52 0.55 0.58 0.61 0.64 0.70 0.74 0.77 0.77 0.75 0.73 0.72 0.74 0.73 0.71
0.55 0.50 0.59 0.63 0.63 0.61 0.54 0.53 0.50 0.46 0.45 0.44 0.38 0.40 0.44 0.42 0.50 0.51 0.51 0.47 0.49 0.45 0.38 0.35 0.36 0.32 0.27 0.30 0.28 0.29 0.29 0.32 0.28 0.29 0.27 0.25 0.27 0.28 0.29 0.30 0.30 0.30 0.34 0.33 0.32 0.31 0.30 0.33 0.28 0.27 0.25 0.24 0.28 0.33 0.32 0.30 0.31 0.28 0.31 0.32 0.33 0.32 0.35 0.31 0.32 0.31 0.27 0.42 0.30 0.33 0.30 0.34 0.43 0.47 0.51 0.57 0.58 0.61 0.66 0.67 0.68 0.71 0.74 0.76 0.76 0.73 0.70 0.67
0.60 0.56 0.52 0.54 0.58 0.59 0.60 0.57 0.53 0.48 0.44 0.55 0.40 0.50 0.44 0.43 0.50 0.51 0.56 0.47 0.51 0.47 0.45 0.38 0.34 0.28 0.27 0.27 0.28 0.29 0.32 0.32 0.32 0.29 0.28 0.28 0.29 0.30 0.30 0.30 0.31 0.36 0.33 0.31 0.33 0.32 0.30 0.26 0.28 0.28 0.27 0.27 0.27 0.28 0.29 0.29 0.28 0.29 0.28 0.31 0.34 0.34 0.35 0.31 0.30 0.32 0.40 0.33 0.25 0.36 0.41 0.31 0.35 0.46 0.51 0.53 0.59 0.60 0.66 0.69 0.71 0.73 0.75 0.75 0.73 0.70 0.66 0.66
0.55 0.61 0.61 0.66 0.51 0.56 0.52 0.56 0.55 0.51 0.51 0.47 0.46 0.54 0.46 0.47 0.48 0.44 0.53 0.53 0.56 0.56 0.44 0.44 0.36 0.31 0.31 0.30 0.33 0.29 0.31 0.31 0.32 0.29 0.29 0.30 0.30 0.30 0.29 0.31 0.34 0.36 0.33 0.31 0.34 0.31 0.28 0.25 0.33 0.27 0.28 0.27 0.27 0.28 0.28 0.28 0.28 0.30 0.30 0.31 0.34 0.35 0.34 0.31 0.32 0.36 0.36 0.29 0.29 0.45 0.41 0.33 0.39 0.45 0.54 0.51 0.56 0.61 0.66 0.70 0.74 0.78 0.75 0.73 0.71 0.67 0.64 0.64
0.64 0.63 0.59 0.67 0.55 0.60 0.57 0.64 0.61 0.56 0.51 0.50 0.50 0.50 0.44 0.45 0.45 0.50 0.52 0.54 0.52 0.53 0.51 0.42 0.42 0.37 0.37 0.38 0.32 0.29 0.33 0.30 0.30 0.32 0.31 0.30 0.29 0.29 0.28 0.29 0.37 0.36 0.33 0.31 0.31 0.38 0.31 0.28 0.32 0.29 0.28 0.26 0.27 0.27 0.28 0.27 0.29 0.29 0.30 0.31 0.32 0.35 0.36 0.35 0.35 0.40 0.36 0.33 0.38 0.39 0.40 0.35 0.43 0.53 0.57 0.55 0.61 0.65 0.69 0.73 0.73 0.71 0.69 0.67 0.65 0.64 0.63 0.64
0.68 0.58 0.62 0.59 0.50 0.45 0.47 0.51 0.56 0.56 0.52 0.58 0.44 0.49 0.45 0.45 0.44 0.51 0.54 0.49 0.46 0.51 0.56 0.47 0.49 0.50 0.43 0.38 0.36 0.31 0.36 0.40 0.43 0.38 0.36 0.34 0.32 0.31 0.30 0.29 0.31 0.34 0.33 0.31 0.31 0.35 0.29 0.33 0.31 0.30 0.27 0.27 0.27 0.28 0.28 0.28 0.29 0.29 0.32 0.33 0.32 0.33 0.34 0.35 0.36 0.41 0.39 0.41 0.40 0.37 0.37 0.37 0.55 0.55 0.54 0.63 0.66 0.68 0.68 0.64 0.67 0.69 0.66 0.64 0.62 0.62 0.63 0.66
0.76 0.79 0.72 0.56 0.47 0.48 0.49 0.45 0.45 0.48 0.47 0.54 0.47 0.53 0.49 0.47 0.46 0.53 0.50 0.55 0.50 0.53 0.56 0.51 0.53 0.51 0.48 0.41 0.36 0.36 0.44 0.43 0.44 0.43 0.45 0.40 0.35 0.36 0.32 0.31 0.33 0.31 0.31 0.33 0.31 0.34 0.29 0.40 0.33 0.30 0.26 0.27 0.28 0.27 0.28 0.29 0.29 0.28 0.31 0.31 0.31 0.32 0.31 0.35 0.34 0.40 0.35 0.35 0.41 0.40 0.36 0.37 0.69 0.63 0.57 0.62 0.61 0.60 0.61 0.63 0.63 0.63 0.63 0.61 0.61 0.61 0.64 0.69
0.84 0.88 0.80 0.69 0.50 0.60 0.46 0.55 0.48 0.43 0.35 0.44 0.53 0.56 0.50 0.53 0.55 0.54 0.47 0.53 0.56 0.59 0.59 0.57 0.57 0.53 0.51 0.43 0.42 0.43 0.46 0.47 0.48 0.49 0.49 0.48 0.47 0.45 0.41 0.39 0.37 0.33 0.31 0.31 0.33 0.31 0.31 0.34 0.28 0.28 0.25 0.27 0.32 0.28 0.28 0.28 0.27 0.25 0.28 0.31 0.33 0.33 0.34 0.39 0.38 0.41 0.39 0.39 0.42 0.38 0.38 0.62 0.59 0.60 0.51 0.53 0.58 0.58 0.64 0.65 0.64 0.65 0.64 0.64 0.63 0.64 0.68 0.75
Wind_Speed
7 7 7 7 7 6 7 7 7 7 7 8 8 8 8 8 8 8 8 8 8 8 8 9 9 9 9 9 9 9 10 9 8 7 7 7 6 6 6 6 6 7 6 6 6 5 5 4 3 2 2 2 3 4 4 4 4 1 5 6 7 8 9 8 7 8 8 8 8 7 6 5 6 5 5 4 4 5 5 5 5 6 6 7 8 10 10 10
8 8 8 7 7 7 7 7 7 7 8 8 8 8 8 8 8 8 8 8 9 9 9 9 9 9 9 9 9 9 9 9 8 8 7 6 6 6 6 6 6 7 7 6 6 6 5 4 3 3 2 2 2 3 3 3 3 3 6 7 8 7 8 8 7 7 7 8 8 7 6 5 5 5 5 4 4 4 5 6 6 6 7 8 9 10 10 10
8 8 8 8 8 8 8 8 8 8 8 8 8 8 9 9 9 8 8 9 9 9 9 9 9 9 9 9 9 9 9 8 8 7 6 5 5 6 6 7 7 7 7 7 7 7 6 4 4 3 2 2 2 3 2 2 3 5 7 7 8 8 7 7 7 7 7 7 7 7 6 5 4 4 4 4 4 4 4 5 5 6 8 8 9 10 10 9
9 9 9 9 9 9 9 9 9 9 8 8 9 9 9 9 9 9 9 9 9 9 9 9 10 10 10 9 9 9 8 8 8 7 6 5 4 5 6 7 7 8 7 7 7 6 6 5 5 4 3 2 1 2 2 3 2 5 7 7 7 7 8 7 6 7 7 6 6 7 6 5 4 4 4 4 4 3 3 4 5 6 8 9 9 10 10 9
9 9 9 9 9 9 9 10 9 9 9 9 9 9 9 9 9 9 9 9 9 9 9 10 10 10 10 9 9 9 9 8 8 7 6 5 4 4 6 7 8 8 7 7 7 7 6 6 5 5 3 2 1 1 2 4 3 4 6 7 7 6 6 6 6 7 7 6 6 7 6 5 5 4 4 3 3 3 2 2 4 6 7 9 9 9 9 9
10 10 10 10 10 10 10 10 10 10 10 9 9 9 9 9 9 9 9 9 9 9 9 9 10 10 10 10 9 9 9 9 8 7 6 5 4 4 6 7 8 8 8 8 8 8 7 6 6 5 4 2 1 0 2 3 3 4 6 7 7 6 6 6 6 7 7 6 6 5 5 4 5 5 3 3 2 2 2 2 4 5 7 8 9 9 9 8
10 10 11 11 11 11 11 11 11 10 10 10 10 10 10 10 9 9 9 9 9 9 9 9 9 9 10 10 9 8 8 8 8 7 5 5 5 5 6 7 8 8 9 9 9 9 8 7 7 5 4 3 2 0 1 3 4 4 5 6 6 6 6 5 5 7 7 6 5 4 4 4 4 4 3 2 2 2 2 3 4 5 6 7 8 8 8 8
11 11 11 11 11 12 12 12 11 11 10 10 10 10 10 10 10 9 9 9 9 9 8 8 9 9 10 10 10 9 8 8 8 7 6 5 5 5 6 7 8 9 9 10 10 10 9 8 6 5 5 3 2 1 1 3 4 4 5 6 5 6 6 5 5 6 7 5 4 4 4 4 3 3 3 3 2 2 3 5 5 6 6 7 7 8 8 8
11 11 11 12 12 12 12 12 12 11 11 10 10 10 10 10 9 9 9 9 8 9 8 8 8 9 9 10 10 9 8 9 8 7 6 5 5 6 6 7 8 9 10 10 10 10 9 8 6 5 5 4 3 2 2 3 3 3 5 6 6 6 6 6 6 6 6 5 4 4 4 4 3 3 4 3 2 2 4 5 6 7 7 6 6 7 7 7
11 12 12 12 13 13 13 12 12 12 11 11 10 10 9 9 9 9 8 8 8 8 8 8 8 8 9 10 10 9 8 9 8 6 6 5 5 6 7 7 8 9 10 10 11 11 9 8 6 6 6 5 4 3 3 3 3 4 5 6 5 5 6 6 6 6 6 5 5 4 4 4 3 3 4 4 3 3 5 6 6 7 8 7 6 6 6 6
12 12 13 13 13 13 13 13 12 12 11 11 10 10 9 9 9 9 8 8 8 8 7 7 7 8 9 10 10 9 8 9 7 6 5 5 5 6 6 7 8 10 10 10 11 11 9 8 7 7 6 5 5 4 3 3 4 5 6 6 5 5 5 5 5 5 5 4 4 4 3 4 4 4 3 3 3 4 5 6 6 6 6 6 5 5 5 6
12 13 13 13 13 13 13 13 13 12 12 11 10 10 9 9 9 9 8 8 8 7 7 7 7 8 10 10 10 9 8 8 7 5 5 4 4 5 5 6 8 10 10 10 11 10 9 9 8 8 6 5 6 5 4 4 5 6 6 5 5 6 5 5 5 5 5 4 3 3 2 3 4 3 3 3 4 4 5 6 5 5 6 6 5 5 5 6
13 13 13 13 14 14 14 14 13 13 12 11 10 10 9 9 9 9 8 8 8 7 6 7 7 9 10 9 9 8 8 8 6 5 4 3 3 3 4 5 7 9 9 9 10 10 10 9 9 9 7 7 6 5 5 5 6 7 7 5 5 6 5 4 4 5 5 4 3 3 2 3 2 1 2 3 4 5 5 5 5 5 5 6 6 5 5 6
13 13 13 14 14 14 14 14 14 13 12 11 10 10 9 9 9 9 8 8 7 6 6 6 7 9 9 8 8 8 7 6 5 4 4 3 2 2 3 4 6 8 8 8 8 9 10 10 10 9 9 8 7 6 7 6 7 7 6 6 6 4 3 4 4 5 5 4 4 4 2 2 1 1 2 3 4 5 6 6 6 5 4 6 8 7 6 6
14 14 14 14 14 14 14 14 14 13 12 11 10 10 9 9 8 8 8 7 7 6 6 7 8 9 9 8 8 7 6 5 4 4 4 3 3 2 3 4 5 7 8 8 8 9 9 10 10 10 9 9 8 8 7 7 7 7 5 6 5 3 3 4 4 5 5 4 5 4 2 1 1 0 2 3 4 5 6 6 6 5 5 6 9 8 7 7
14 14 14 14 14 14 14 14 14 13 12 11 10 9 9 9 8 8 8 7 7 6 7 8 8 8 8 7 7 7 6 6 5 4 3 3 3 2 2 4 5 7 8 8 8 9 10 10 10 10 10 10 10 9 8 7 7 7 6 4 3 3 3 4 4 5 5 4 5 5 2 1 1 0 1 2 3 4 5 5 6 6 7 6 8 10 8 7
15 15 15 15 15 15 15 15 14 13 11 10 10 9 9 9 8 8 8 8 8 8 8 9 7 8 8 7 7 7 6 6 4 3 3 3 3 2 2 3 4 6 7 7 8 9 10 10 10 10 11 11 10 9 8 8 7 7 7 4 3 3 2 3 4 5 5 5 5 5 3 2 1 1 1 1 3 3 5 4 5 5 6 6 7 9 9 8
16 15 15 15 15 15 15 15 14 13 11 10 9 9 9 9 8 9 8 8 8 8 9 8 7 8 7 6 7 7 6 5 3 3 3 3 3 3 3 3 4 5 7 7 8 9 10 10 10 10 11 12 11 11 10 7 5 5 5 5 4 3 3 2 3 4 6 5 5 5 4 3 2 1 1 1 2 3 4 4 4 4 5 6 7 9 10 9
16 16 16 16 16 16 15 15 14 13 11 10 9 9 9 9 10 10 9 9 9 9 8 7 7 8 7 6 7 7 6 4 3 3 2 2 3 3 3 3 4 5 6 7 8 9 10 10 11 11 11 12 13 13 10 6 5 5 5 5 4 4 3 2 2 4 5 5 5 5 4 3 3 2 1 1 2 3 3 3 4 4 5 6 7 8 10 10
17 17 17 16 16 16 16 15 14 13 11 10 9 10 10 10 10 9 10 11 10 9 9 8 8 9 7 6 6 6 5 3 3 3 2 3 2 3 3 3 4 5 6 6 7 8 10 10 12 13 13 12 12 12 11 8 7 8 7 6 5 4 3 2 3 3 4 5 4 4 4 4 4 2 2 2 3 3 3 3 4 4 5 5 7 8 9 10
18 18 18 17 17 16 16 16 15 13 11 10 10 10 10 10 10 10 11 11 9 9 10 9 9 9 7 6 5 5 4 3 3 2 2 3 3 3 3 4 4 5 5 5 6 7 9 11 13 14 13 12 11 11 11 10 9 9 8 7 6 5 4 4 3 4 5 6 4 4 5 4 4 3 3 4 4 4 4 4 4 4 4 5 7 8 9 10
19 18 18 18 17 17 17 17 15 13 12 10 10 10 10 10 10 10 11 11 9 9 10 9 8 8 7 6 5 5 4 3 2 2 2 3 4 3 3 4 5 3 4 5 6 6 9 11 13 14 13 12 12 12 12 11 11 10 9 8 7 5 5 5 5 5 5 5 5 5 5 4 4 4 4 5 5 4 4 4 4 4 4 4 6 8 8 10
20 20 19 19 19 18 18 17 16 13 12 11 11 10 9 10 10 10 10 11 10 8 8 8 8 8 7 6 5 4 4 3 3 3 3 4 4 3 3 4 4 3 4 6 7 7 7 8 11 12 12 13 13 13 12 11 11 10 9 9 7 6 6 6 6 6 6 6 5 5 5 4 4 5 5 4 5 5 5 5 5 5 5 5 6 7 8 10
21 21 20 20 20 19 18 18 15 12 12 12 11 10 10 11 11 10 10 10 9 7 7 7 7 7 5 4 4 4 4 4 4 3 4 5 4 3 4 4 4 4 4 6 7 8 7 5 7 11 11 13 13 13 13 11 10 11 11 10 8 6 6 6 5 6 6 7 6 6 6 5 4 5 5 4 5 6 6 6 6 5 5 5 6 6 7 10
22 21 21 21 20 19 19 17 13 12 13 12 11 10 10 11 10 10 10 10 9 7 6 6 6 6 5 4 4 4 4 4 4 3 5 6 4 3 3 4 4 3 3 4 6 7 7 6 7 10 11 12 12 12 13 12 9 9 11 12 10 7 6 6 6 7 8 7 7 8 8 6 5 5 5 5 5 6 6 6 7 6 6 6 6 6 7 8
22 22 21 21 20 20 18 14 12 13 14 11 10 10 11 11 10 9 9 9 8 7 6 6 6 5 5 5 4 3 5 4 3 3 4 6 5 3 3 3 3 3 2 3 4 4 4 6 8 9 10 12 12 12 13 12 10 8 8 10 10 9 8 8 8 8 9 7 7 8 8 7 6 5 6 6 6 6 6 7 7 7 7 7 7 7 7 7
22 21 21 20 19 19 15 13 13 14 13 11 10 11 11 11 10 9 9 9 8 7 6 6 6 5 5 5 5 4 4 3 3 3 5 5 5 4 4 4 3 3 3 2 3 3 4 6 7 9 10 11 11 11 12 13 11 7 6 8 9 9 9 9 9 9 8 7 7 8 8 8 7 6 6 6 6 5 5 6 6 7 7 7 7 7 7 7
21 21 21 20 19 18 16 15 15 14 13 12 12 12 12 11 9 9 10 9 7 6 7 6 6 6 5 5 7 6 4 2 4 5 5 6 6 6 5 6 4 3 4 3 1 3 4 5 7 9 9 10 9 8 10 13 11 7 6 8 8 9 9 9 9 9 7 8 8 7 7 8 6 5 6 6 5 5 4 5 5 6 6 7 7 7 7 8
21 20 20 20 20 18 17 16 16 14 13 13 12 12 11 10 9 9 10 10 7 7 7 6 6 7 6 5 8 7 5 4 5 4 5 7 7 6 5 5 6 5 5 5 3 2 4 4 5 7 8 7 6 5 7 11 10 8 7 7 7 8 8 8 9 8 7 9 8 6 7 8 5 5 6 6 5 4 4 4 4 5 5 5 6 6 7 7
21 21 20 20 18 16 15 16 16 15 14 13 13 12 11 11 10 10 10 9 8 7 7 7 7 7 8 7 8 8 7 6 4 4 6 7 8 8 6 5 6 6 6 7 6 4 4 4 4 6 6 4 5 5 6 8 8 8 8 8 7 7 7 8 8 7 8 9 7 6 7 9 7 5 6 5 4 4 4 4 4 4 4 4 5 6 6 7
22 21 20 19 17 15 14 14 14 14 13 13 12 12 11 11 11 11 10 9 9 8 7 8 8 7 9 9 8 8 8 7 5 5 7 7 8 9 8 6 7 7 6 7 7 6 6 6 5 6 6 5 6 6 6 7 8 9 9 8 8 7 7 8 7 8 9 8 5 6 8 10 8 6 5 5 4 4 4 4 4 4 4 4 4 5 5 6
22 21 20 18 17 15 15 14 13 13 13 13 12 12 12 11 12 12 10 9 9 8 8 8 8 9 9 9 9 8 8 8 7 8 8 8 9 9 9 8 6 7 7 6 7 7 7 6 5 6 7 7 7 7 6 8 9 10 10 9 10 8 7 8 8 8 9 6 5 6 8 9 8 5 5 5 4 4 4 4 4 4 4 4 4 4 4 5
22 21 20 17 15 15 15 14 14 14 14 13 13 12 12 12 12 12 12 10 8 8 8 8 8 9 9 10 10 9 8 8 8 8 8 9 9 9 10 9 7 7 6 5 6 7 7 6 7 8 7 8 8 7 6 6 8 10 10 10 9 9 8 9 8 8 7 6 5 5 6 7 6 4 5 5 4 4 3 3 4 4 4 4 3 4 4 4
22 20 17 14 14 14 14 14 14 13 13 13 13 12 13 14 12 11 13 12 10 9 9 9 10 11 11 11 10 9 9 9 8 8 8 9 10 10 10 10 10 9 7 6 7 7 7 6 7 8 6 7 9 7 5 4 6 7 8 9 9 9 9 8 7 6 5 4 4 4 5 6 4 4 4 4 4 4 3 3 4 3 3 4 3 3 3 3
21 18 15 13 13 14 14 14 13 12 12 13 13 13 14 15 13 12 12 12 11 11 10 10 11 12 12 12 11 10 9 8 9 9 9 9 10 10 10 10 11 10 9 8 6 7 8 6 5 6 6 7 8 6 5 5 5 5 5 7 7 6 7 6 6 5 5 5 4 5 5 4 4 5 5 5 5 4 4 4 4 4 4 4 3 3 4 4
19 15 13 13 13 13 13 13 13 12 13 13 14 15 15 14 12 12 11 11 12 12 12 12 12 12 12 12 12 12 10 8 9 10 10 10 11 11 10 9 10 11 10 9 6 6 8 6 5 7 8 8 7 5 5 5 4 4 5 6 4 4 6 6 5 5 6 6 4 4 5 3 4 5 5 5 6 5 5 4 4 4 4 4 4 4 4 5
17 14 12 12 13 13 13 12 12 12 13 13 15 15 15 14 13 12 11 11 12 12 13 13 12 12 13 12 13 13 12 11 11 10 10 10 10 11 12 10 9 11 11 10 8 7 7 5 5 9 9 8 8 7 6 6 5 5 4 4 3 3 5 6 5 5 6 6 4 4 5 4 4 4 4 5 6 6 5 5 4 5 5 4 4 4 5 5
16 13 12 12 12 11 11 10 10 11 12 14 15 16 15 14 14 13 13 12 12 12 13 13 12 12 13 13 12 13 13 12 12 11 10 10 9 10 13 12 10 11 11 11 9 7 8 6 5 8 8 8 9 9 8 7 7 6 4 4 4 4 5 5 5 5 5 5 4 3 4 4 4 4 4 6 6 6 6 5 6 6 5 5 5 5 6 6
16 13 11 11 11 10 9 9 10 11 12 13 15 15 15 15 14 14 14 14 14 13 14 14 13 12 13 13 11 11 13 13 12 12 11 10 9 9 11 12 10 10 11 12 11 8 8 7 6 7 8 8 10 11 10 8 7 7 6 6 6 5 4 4 5 4 4 4 3 3 4 3 2 3 3 5 6 6 6 6 6 6 6 6 6 6 7 8
15 14 11 11 12 11 10 10 10 11 12 13 14 14 14 15 15 15 15 15 15 15 14 14 14 14 14 13 12 12 13 13 12 12 11 11 10 9 11 12 11 10 11 12 11 9 8 8 6 6 7 8 10 10 10 8 7 8 9 8 7 6 5 5 5 5 5 4 3 4 4 2 2 4 4 4 5 6 6 6 6 6 6 6 7 7 8 9
15 13 11 11 12 11 11 11 11 11 12 13 14 14 14 14 15 15 15 15 16 16 16 15 16 15 15 14 14 13 13 14 13 13 12 12 12 11 11 12 12 11 11 12 12 10 9 9 8 7 8 8 8 8 9 9 8 8 8 8 8 7 6 6 6 5 6 5 4 5 5 2 2 4 4 3 4 5 6 6 6 6 6 7 7 8 9 9
15 13 12 12 12 11 12 12 11 11 13 13 13 14 14 14 16 16 16 16 17 17 17 17 17 17 17 16 15 14 14 15 14 14 13 13 13 12 10 11 12 12 12 11 10 9 8 9 9 8 7 7 6 7 9 10 10 10 10 9 9 8 8 7 6 5 6 6 5 6 6 4 3 4 4 4 4 4 5 6 6 6 7 7 8 9 9 10
15 14 13 13 13 12 13 13 12 13 13 13 13 14 14 14 15 15 16 17 17 17 18 18 18 18 18 18 17 16 16 15 15 15 14 13 13 11 10 11 12 13 13 11 10 9 9 9 10 8 7 7 7 8 9 10 11 12 11 11 11 10 9 8 7 6 7 7 6 7 6 4 4 5 4 4 4 4 5 6 7 7 7 8 8 9 9 9
16 15 14 14 13 13 14 13 13 13 13 13 14 14 14 15 15 15 16 16 16 16 17 18 18 18 18 18 18 17 16 16 16 16 14 13 12 10 12 13 13 14 13 11 11 11 10 9 10 9 9 8 8 8 9 10 11 12 11 11 12 11 10 10 8 8 9 8 7 8 6 3 4 6 5 5 5 6 6 6 7 8 8 8 8 8 9 9
16 15 14 14 13 14 14 14 14 14 13 14 15 15 14 15 15 16 16 16 16 17 17 18 18 19 18 18 19 19 18 17 16 15 15 14 12 11 13 15 14 14 13 10 10 12 11 10 10 10 9 9 8 7 7 8 10 11 11 12 13 13 12 11 9 9 10 8 8 9 7 3 5 7 7 7 7 7 7 7 8 8 9 9 9 9 9 9
16 15 14 14 13 14 14 14 15 15 14 14 15 15 15 15 15 16 17 17 16 17 18 18 19 19 20 20 20 20 20 20 18 16 16 15 13 12 13 15 14 13 12 10 11 12 11 11 11 11 11 10 8 8 8 9 10 12 12 13 14 14 13 12 11 10 9 8 9 10 7 6 7 7 8 8 8 8 7 7 8 9 9 9 9 9 9 9
16 15 14 14 14 14 14 14 15 15 14 15 15 15 16 16 15 15 16 16 16 16 18 19 20 20 20 21 21 21 20 21 20 19 18 16 14 12 13 16 15 13 12 13 13 12 11 12 12 12 12 11 9 9 9 11 12 12 12 13 14 14 14 14 13 10 8 9 9 8 7 9 8 7 8 8 8 9 8 8 8 9 8 9 9 9 10 10
16 15 15 15 15 14 13 14 15 15 16 16 16 16 17 17 17 16 16 16 16 16 16 17 19 21 21 20 20 20 20 20 21 21 20 17 15 14 14 16 16 15 15 15 14 13 13 12 12 12 11 10 9 9 10 11 12 12 12 12 13 14 15 15 14 11 10 11 9 6 7 10 9 7 8 8 8 9 8 8 8 8 9 9 10 10 10 10
17 16 15 15 16 16 15 15 16 17 17 17 17 17 17 18 18 17 16 16 16 16 16 17 18 19 20 21 21 21 20 20 20 21 21 19 18 16 16 16 16 16 17 16 14 13 13 11 11 11 11 9 9 9 10 11 11 12 12 12 12 14 15 16 15 13 12 12 10 8 10 11 10 8 8 8 8 8 8 8 8 8 9 10 10 10 10 10
17 17 16 16 17 17 17 17 17 17 17 16 17 17 17 18 18 17 17 17 17 16 16 17 17 18 19 21 22 22 21 19 18 19 19 19 19 18 17 17 17 17 18 16 15 14 13 12 11 12 11 10 9 9 9 10 11 11 12 12 12 13 14 15 14 13 13 13 11 11 12 12 10 8 8 7 8 7 8 8 9 9 10 10 10 10 10 10
18 17 17 18 18 17 17 17 17 17 17 17 17 16 17 17 17 17 18 19 19 17 16 16 16 17 19 20 22 22 20 20 20 19 19 20 19 18 17 17 17 18 18 17 15 15 14 12 12 12 12 11 10 9 10 10 10 12 13 13 14 14 13 14 14 14 14 14 12 12 13 12 9 8 8 8 8 8 8 9 9 10 10 10 10 10 10 11
18 18 17 18 18 17 17 17 17 17 17 16 16 16 17 17 16 16 17 18 19 18 16 15 16 17 18 19 20 20 20 21 22 21 21 21 20 19 18 17 18 19 19 17 16 15 15 13 12 13 13 11 10 10 9 9 10 12 12 12 14 14 14 14 14 15 15 15 13 13 12 9 9 9 9 9 9 9 9 9 10 10 10 10 10 10 10 11
Wind_Direction
29 26 22 18 13 9 6 3 0 358 355 353 351 349 348 347 346 345 344 344 344 344 344 344 342 340 338 335 333 331 329 323 317 301 287 287 274 261 251 234 223 216 218 220 221 217 215 225 228 251 284 312 330 339 340 342 357 83 168 171 157 149 152 158 153 158 164 155 152 154 158 144 132 133 134 137 124 111 102 95 92 84 89 102 113 124 130 134
23 20 16 11 7 2 358 355 353 350 348 347 345 343 342 342 341 341 340 339 340 340 340 340 339 337 335 332 330 329 330 325 319 309 296 290 270 251 243 227 215 214 217 219 219 216 218 224 225 240 278 314 341 351 354 12 32 106 142 149 144 144 150 159 158 154 159 157 154 158 162 150 134 134 144 143 125 120 105 98 97 92 100 111 120 127 130 136
18 14 10 6 1 357 352 349 345 343 342 340 338 337 337 337 337 336 335 335 336 336 336 336 336 335 334 332 328 329 330 322 321 323 313 296 269 248 233 223 218 217 221 223 220 220 226 229 225 234 272 306 346 0 9 51 66 113 137 145 142 149 152 154 162 161 159 160 162 163 162 151 137 137 147 141 127 127 108 100 100 102 112 122 129 132 134 139
14 10 6 2 357 352 348 344 340 338 336 334 333 332 332 332 332 332 331 331 331 333 333 333 334 333 334 333 328 328 323 317 324 331 321 300 272 243 228 224 222 222 227 225 222 224 228 224 219 234 265 282 348 5 38 66 87 124 138 148 144 149 149 145 158 165 162 166 166 164 164 154 143 147 150 146 134 126 114 106 103 111 122 129 135 139 139 142
9 6 2 358 354 349 345 341 338 335 332 330 328 327 327 327 327 327 327 328 327 329 330 330 331 331 333 332 328 325 320 321 329 326 314 298 274 241 229 226 223 226 227 221 221 222 219 218 220 231 247 262 322 2 66 74 111 135 138 149 151 156 152 144 152 160 160 165 167 167 166 153 153 160 155 163 151 110 103 112 110 118 131 137 142 144 144 146
3 1 358 355 351 347 343 339 336 333 330 327 325 323 323 323 323 323 323 323 324 325 326 328 329 330 331 331 328 322 317 326 330 319 306 290 271 246 235 228 225 225 222 217 218 218 213 217 225 232 238 245 277 3 72 92 133 143 144 153 160 173 173 155 152 157 159 163 164 168 168 162 169 166 156 177 173 119 107 133 133 127 135 141 144 147 150 152
359 357 355 352 349 346 342 338 335 332 329 326 323 321 320 320 320 320 319 319 320 322 323 325 327 328 329 328 326 318 316 327 328 318 304 283 268 251 240 231 227 222 218 216 215 217 215 218 228 236 237 231 234 268 77 123 145 145 145 156 169 179 181 169 159 160 161 161 158 167 178 179 181 173 171 183 177 157 141 152 150 137 140 144 147 152 154 156
356 354 352 349 347 344 341 338 335 330 327 324 321 319 319 318 318 318 317 316 318 319 320 323 325 326 328 327 324 320 322 330 324 315 304 283 265 250 240 232 228 221 218 217 215 217 217 221 230 233 225 219 229 240 155 146 156 153 143 147 159 168 175 171 165 164 164 166 166 177 178 175 182 188 198 195 175 165 157 158 158 151 150 151 152 155 157 159
353 351 349 347 345 343 340 337 334 330 327 323 320 319 318 317 317 317 316 316 316 318 320 322 323 324 326 325 321 320 327 329 321 312 301 283 265 246 238 234 227 221 219 217 217 219 218 220 224 226 226 221 230 233 197 170 163 164 155 148 147 153 165 167 163 165 169 171 178 185 179 173 180 201 207 199 200 175 165 165 162 160 161 159 158 159 160 162
350 349 347 345 343 341 339 336 333 331 327 323 321 319 318 317 317 315 315 315 315 316 318 320 323 323 325 324 320 322 328 325 319 314 301 282 265 246 239 235 225 219 218 215 214 216 218 220 217 220 225 220 223 224 210 189 174 176 169 159 154 151 155 163 161 162 166 169 183 194 191 182 180 205 201 183 195 181 166 168 168 169 166 164 163 162 165 166
347 346 345 343 341 339 338 336 333 330 327 324 322 319 317 316 315 314 313 314 314 314 315 320 323 324 326 323 320 325 326 321 319 314 301 282 262 247 243 235 221 216 215 212 212 214 217 218 218 220 218 217 222 216 207 196 190 184 172 165 166 167 163 167 164 157 162 163 172 189 204 200 194 208 206 185 196 187 171 171 171 171 172 171 169 166 170 172
343 343 343 341 339 338 337 335 333 330 327 324 321 319 317 315 315 314 313 312 312 311 314 319 322 327 326 320 322 329 324 319 320 312 300 283 266 253 245 232 218 215 215 214 211 214 218 216 219 223 218 224 225 213 209 206 198 188 184 178 173 180 181 178 173 167 174 165 156 177 195 190 189 201 207 206 207 195 182 176 169 175 188 192 185 175 176 180
340 340 340 339 338 337 336 335 333 330 327 324 322 320 317 316 315 314 314 312 310 308 311 317 322 327 324 322 330 333 325 321 320 313 299 284 277 262 241 228 219 217 218 218 211 212 219 216 220 224 221 225 220 212 217 209 200 196 197 202 191 186 187 188 186 183 186 171 164 185 171 149 157 184 210 217 212 204 192 182 181 185 196 205 202 193 185 186
338 337 337 337 337 336 336 335 333 330 327 324 323 320 319 317 316 316 315 314 311 307 308 315 323 325 323 331 339 334 330 327 319 310 296 276 275 264 233 220 217 215 217 221 216 214 217 216 220 223 218 218 217 218 218 207 204 203 205 214 207 197 201 198 192 194 196 181 184 200 176 145 152 197 222 221 215 216 203 187 187 192 203 212 209 204 193 191
338 336 335 335 335 334 334 334 332 330 328 326 323 321 321 319 318 318 316 315 311 305 306 313 320 322 321 332 341 337 335 330 317 302 287 265 257 252 228 217 216 215 217 223 220 217 218 218 220 220 214 212 216 220 214 207 208 202 202 209 204 204 205 194 196 208 209 190 192 207 201 170 183 252 224 216 214 224 220 191 177 190 208 214 211 205 200 197
336 335 333 332 332 332 332 332 331 329 328 325 321 319 321 320 318 317 316 313 306 300 304 310 314 315 320 332 336 333 329 325 319 301 277 262 262 254 222 218 219 217 218 222 222 218 219 219 219 220 217 212 214 216 210 211 213 205 211 213 200 218 210 195 208 214 213 200 193 205 222 194 163 125 179 208 213 225 237 202 167 187 205 210 214 210 208 206
331 332 332 331 330 330 329 330 329 327 326 323 317 315 317 317 314 313 312 307 302 300 301 308 310 309 317 327 326 326 327 325 320 299 272 263 268 252 214 219 221 216 214 217 219 217 217 218 216 216 217 215 213 214 210 211 210 206 218 222 210 237 239 213 215 207 207 212 203 204 221 229 183 134 138 189 216 224 246 222 178 194 207 206 217 215 213 211
327 327 328 328 328 328 327 327 326 324 323 319 312 311 312 309 307 307 306 305 303 299 300 302 303 308 313 312 317 326 327 318 308 297 277 260 256 239 228 229 217 206 207 213 216 216 215 214 215 216 215 213 212 211 209 208 207 202 210 220 224 231 233 228 226 210 206 214 214 207 216 239 239 237 187 184 227 236 252 243 205 203 213 210 214 214 214 214
323 323 323 324 325 325 325 325 322 319 319 314 306 307 307 303 302 299 299 303 297 293 300 295 292 308 315 307 314 324 323 309 296 293 268 249 244 237 240 234 214 203 207 212 213 214 216 214 214 217 215 211 211 212 217 222 225 227 228 234 245 237 227 234 233 216 213 218 216 212 226 247 243 246 247 216 242 255 257 260 236 215 217 216 213 214 215 216
321 320 319 320 320 321 321 321 319 314 313 308 302 301 301 302 302 299 299 298 289 286 294 289 286 298 306 306 311 319 320 300 283 280 248 237 232 228 231 223 214 212 216 215 211 214 219 219 215 214 213 213 213 215 225 234 233 236 238 238 241 232 217 220 220 215 228 230 215 214 235 246 245 247 265 253 252 258 254 259 256 233 220 217 219 219 217 218
318 317 316 316 316 316 316 317 315 309 306 303 299 298 303 308 306 306 307 298 286 282 285 285 287 290 296 304 308 313 314 293 278 267 235 229 223 220 214 212 217 215 215 216 212 213 219 222 219 216 217 218 218 217 224 232 234 234 236 239 237 223 210 211 218 215 226 234 223 222 234 244 254 259 265 261 258 264 262 262 264 255 237 226 228 225 218 219
315 314 314 313 313 312 311 313 310 305 302 298 295 296 304 309 304 305 306 298 290 284 282 281 281 284 286 289 295 303 302 280 262 243 224 219 220 223 204 208 225 218 203 211 211 209 218 225 224 221 222 221 219 220 225 230 235 234 231 233 230 217 210 211 219 222 226 237 235 230 238 249 259 265 272 267 265 274 280 276 272 269 261 249 241 233 223 220
312 312 311 310 310 309 308 308 304 300 299 294 292 295 299 303 303 301 297 294 293 284 276 272 272 277 276 279 282 279 281 271 247 228 214 213 219 229 221 216 229 223 206 215 216 215 219 226 225 220 216 216 216 219 223 227 231 231 228 228 226 223 225 223 222 224 232 248 251 243 248 258 258 256 260 262 267 272 274 275 271 267 267 266 259 247 234 225
310 310 309 308 307 306 306 304 297 293 297 292 287 290 295 298 301 298 292 291 289 280 274 269 271 274 272 284 270 244 269 278 252 224 203 211 212 218 233 231 232 232 225 226 228 233 235 228 218 211 207 212 215 215 218 223 225 226 227 230 234 236 237 237 226 224 237 246 250 252 250 252 252 253 251 246 257 263 262 266 266 261 262 267 266 258 245 234
309 308 308 307 305 304 304 299 289 291 297 290 281 283 290 296 299 294 291 291 283 272 269 264 267 270 266 273 252 248 277 271 253 231 200 212 214 210 234 233 230 234 228 229 234 241 238 218 205 204 202 208 212 213 214 218 227 228 224 229 240 247 242 239 231 235 248 244 243 253 251 241 231 248 266 259 257 258 258 263 264 262 262 264 265 261 253 242
307 306 306 305 304 303 299 290 287 293 293 285 279 281 287 295 295 290 291 290 280 267 259 256 259 259 256 252 234 258 277 255 254 243 207 217 221 230 243 215 218 238 226 228 236 237 219 200 204 207 204 204 210 214 211 216 230 231 218 223 237 242 240 240 238 247 259 253 243 248 252 248 231 242 270 270 266 264 262 263 262 264 267 266 266 262 256 245
307 306 305 303 303 302 294 284 287 290 285 281 280 279 285 291 288 286 288 283 274 267 257 252 259 256 255 247 224 249 281 246 236 235 220 223 218 229 241 212 214 222 196 217 226 200 188 189 199 204 202 204 213 216 209 213 227 225 216 226 232 234 239 241 242 250 257 251 241 239 252 258 242 242 265 266 266 269 268 266 264 268 269 266 264 260 255 248
309 307 305 303 300 296 288 282 285 284 280 280 279 277 282 283 279 280 283 280 275 271 258 250 259 256 253 248 229 246 289 252 240 236 218 225 220 222 233 229 239 227 201 230 220 159 179 188 186 190 197 202 209 212 205 212 225 229 231 237 233 236 242 242 244 248 250 250 245 229 242 258 247 240 258 260 259 267 273 274 276 278 274 267 262 258 253 246
312 310 307 304 300 293 285 280 279 278 277 277 276 276 277 274 272 274 276 278 272 264 258 247 249 245 241 243 233 243 265 254 263 252 213 222 225 226 240 236 243 242 220 233 241 179 181 187 184 193 203 204 202 209 212 220 229 227 227 232 231 237 241 240 244 243 240 251 249 223 237 262 258 240 250 255 254 263 271 274 282 287 282 272 263 259 253 244
312 311 309 306 301 293 286 281 276 274 274 273 273 273 270 265 268 269 266 271 270 262 256 244 242 240 232 234 235 238 245 248 261 243 218 222 220 224 242 238 237 245 231 228 236 222 197 194 204 212 219 213 199 207 220 225 223 215 217 223 225 233 238 240 245 245 246 250 245 234 250 263 261 248 250 255 260 267 267 267 278 287 289 284 268 259 255 247
312 311 309 305 299 293 288 284 277 272 270 271 271 267 262 261 265 266 262 267 269 259 247 239 237 237 231 234 239 234 235 241 242 230 223 222 218 221 230 227 225 232 233 229 225 218 210 209 212 214 218 217 206 208 220 222 218 218 222 228 230 230 232 236 236 239 248 248 237 246 257 258 258 256 250 251 262 269 268 270 278 286 294 295 280 265 259 252
311 309 307 301 295 290 286 283 279 273 268 270 267 258 257 258 258 259 259 264 264 252 245 242 235 236 236 238 243 235 232 237 235 234 232 223 222 222 223 224 221 224 230 224 213 212 213 211 211 210 215 223 219 210 215 223 224 227 227 230 234 231 231 238 233 234 246 247 240 253 257 252 251 255 252 250 255 260 265 273 279 288 297 298 291 277 263 256
311 309 305 298 292 288 284 282 278 272 267 265 259 253 255 257 256 256 255 256 262 257 252 248 240 240 241 241 240 232 232 236 230 232 233 226 227 226 224 229 233 235 234 220 214 215 210 209 214 214 213 219 220 215 215 217 217 222 224 226 231 235 239 241 237 242 251 244 237 249 252 243 235 240 253 248 244 250 253 265 276 287 295 293 290 284 268 257
312 308 302 297 293 288 285 283 277 269 264 257 252 250 250 253 257 259 255 252 257 258 251 247 247 246 242 241 239 229 232 236 226 226 227 224 230 231 227 228 228 232 236 231 230 226 224 221 210 210 208 203 212 224 231 212 201 211 223 228 233 240 242 243 242 248 251 234 219 225 239 245 235 234 247 244 238 243 243 251 265 273 283 285 281 280 277 264
312 307 300 296 293 288 283 280 275 266 258 253 251 250 248 250 256 257 256 255 254 252 249 247 250 248 241 238 238 232 235 236 224 224 227 226 229 231 230 226 219 223 230 228 223 222 233 235 204 207 208 198 204 212 217 219 207 206 218 225 231 237 236 240 248 256 263 250 224 215 229 249 250 242 242 243 237 235 240 247 255 261 270 279 281 281 281 274
311 306 297 295 294 289 284 278 270 261 254 252 251 250 250 254 259 258 257 260 256 252 251 247 245 245 240 235 234 231 233 236 227 226 230 230 232 232 231 226 217 219 224 224 220 217 229 231 206 208 207 202 207 200 204 226 220 205 213 213 215 236 237 236 234 233 246 249 229 225 237 232 237 242 236 238 237 234 243 249 252 263 267 271 280 283 279 275
312 306 298 298 298 293 285 274 266 257 254 253 252 254 255 256 260 260 259 259 257 253 251 247 241 242 241 237 233 227 226 231 228 230 231 227 231 231 227 225 221 222 225 228 229 225 231 231 205 208 208 204 212 212 212 228 233 227 220 203 202 231 233 234 233 220 229 240 225 234 256 247 247 254 238 238 242 238 244 250 254 260 261 267 278 282 280 274
312 305 298 303 305 299 288 273 262 256 255 256 255 257 260 259 259 259 258 258 255 250 247 245 243 244 243 240 234 223 221 226 225 227 230 226 229 229 224 223 222 225 228 229 226 224 233 232 206 209 214 207 213 223 221 219 231 239 225 209 224 230 213 219 236 233 235 247 232 229 254 256 265 270 244 240 245 243 245 252 258 259 261 271 277 280 281 276
309 301 296 303 304 301 293 278 266 258 255 257 257 259 259 258 258 257 256 255 252 248 246 245 244 242 240 241 238 223 220 226 225 225 229 227 227 227 224 224 224 225 227 224 221 221 225 231 220 207 213 216 220 228 228 220 221 228 224 220 228 236 227 224 234 240 248 255 246 243 245 238 270 293 261 244 246 247 251 256 262 265 267 274 279 279 280 277
307 299 297 300 297 295 293 282 271 262 258 259 262 263 261 258 257 256 255 254 251 247 246 245 241 240 240 240 240 232 226 229 229 228 228 224 226 228 225 226 227 224 220 216 218 220 219 228 229 207 211 226 224 225 233 233 224 222 224 222 219 223 232 229 226 237 257 259 253 264 257 223 273 295 281 259 251 252 259 263 266 268 270 276 279 279 280 279
303 297 297 299 293 289 287 279 272 267 264 264 265 265 263 261 259 257 254 253 252 249 247 247 242 241 242 240 237 234 231 231 230 231 231 225 229 234 228 226 224 215 210 211 215 219 219 225 230 221 220 226 224 228 241 246 243 236 232 228 222 220 225 231 229 231 248 258 262 275 271 244 266 284 284 279 268 263 263 265 269 271 273 277 278 279 281 280
300 296 296 298 291 285 282 278 275 272 268 268 269 266 264 263 260 259 255 251 251 248 245 245 243 241 241 240 239 239 236 234 231 231 233 230 231 234 226 221 218 209 207 212 213 215 222 227 230 234 234 232 234 239 241 243 245 244 241 236 230 226 230 242 246 233 237 248 258 269 266 252 263 279 287 292 286 276 272 273 276 277 277 279 279 280 281 281
300 298 295 294 289 281 279 278 275 272 269 270 271 266 263 262 259 258 257 252 250 248 244 243 242 240 238 238 240 240 237 236 233 231 234 233 232 230 220 216 215 211 212 216 213 213 223 228 228 234 237 236 238 237 235 238 240 240 238 233 233 234 235 246 255 249 247 245 246 261 261 245 254 274 287 296 292 282 281 284 284 282 281 281 281 282 282 282
300 296 291 291 287 278 277 279 277 273 269 269 268 263 261 261 259 258 257 253 249 248 245 243 241 238 237 237 238 238 235 234 232 230 232 234 232 227 218 215 216 216 218 222 218 214 221 225 226 232 232 228 231 232 231 232 235 239 237 230 233 235 234 240 246 247 251 247 246 265 270 245 251 270 276 278 280 280 281 286 287 286 285 284 285 285 285 284
299 294 289 288 284 277 277 281 280 277 273 268 266 263 261 261 259 257 258 257 253 249 246 244 240 238 237 237 237 236 235 234 233 231 232 233 230 225 220 217 219 220 222 227 221 215 222 226 226 235 237 233 238 243 242 240 236 239 238 232 233 232 230 235 240 243 247 240 240 256 268 263 254 261 268 271 274 279 282 284 286 286 286 287 288 290 290 288
299 294 291 288 284 278 278 279 278 276 276 271 267 265 262 261 259 256 257 257 254 250 247 244 242 240 237 236 236 236 234 233 233 232 233 232 228 226 221 216 220 223 220 221 219 216 225 229 230 241 248 250 258 261 260 259 251 243 239 236 233 231 229 234 242 248 245 241 244 246 256 274 265 256 266 273 275 281 283 284 284 283 285 288 290 292 292 291
296 294 294 292 287 281 278 278 275 274 275 273 270 268 263 261 260 256 254 254 253 251 248 244 242 240 237 235 235 236 234 233 232 232 233 232 227 225 221 218 220 220 215 216 218 220 229 232 232 240 247 253 262 262 258 257 254 250 243 236 231 229 230 233 240 245 240 247 256 242 241 268 274 266 271 276 279 284 285 285 287 288 288 291 293 292 292 292
293 293 293 289 286 283 281 282 279 275 273 271 270 270 264 260 259 256 253 253 252 251 248 244 240 238 238 237 235 235 234 232 231 230 230 230 227 222 219 219 219 216 215 217 219 225 234 236 233 237 243 248 254 257 256 253 250 247 243 236 230 228 229 232 237 240 238 248 258 245 245 265 275 275 278 282 284 286 287 289 293 295 292 292 293 292 292 293
292 291 289 285 283 283 284 285 282 277 272 269 269 267 262 260 258 256 255 254 252 248 245 245 241 238 239 238 235 234 234 233 231 228 227 229 227 222 219 218 217 216 217 219 221 229 238 238 235 237 240 244 248 253 253 249 245 240 237 237 234 231 232 235 238 238 238 245 251 252 258 266 270 274 278 284 289 289 291 294 295 294 292 291 292 292 292 294
290 290 288 285 282 281 282 281 279 275 271 269 268 266 261 259 257 255 255 253 252 248 243 245 247 244 242 239 234 233 234 235 233 230 229 228 225 223 221 219 216 215 217 219 221 228 235 236 233 236 241 242 245 249 248 244 242 238 234 235 236 235 234 236 237 236 237 244 247 252 262 265 265 270 273 278 286 287 286 289 291 292 291 290 291 292 293 293
286 286 287 285 282 280 280 279 276 274 271 267 266 265 261 257 256 258 256 251 250 250 247 248 250 248 242 237 233 233 235 237 236 234 234 232 228 227 226 222 217 214 216 219 221 224 230 232 230 234 244 244 240 245 247 244 244 243 239 236 234 235 235 235 236 236 237 242 244 251 260 262 257 262 269 272 277 280 281 284 287 289 289 288 290 293 293 293
283 283 283 283 282 280 279 278 274 272 271 269 267 264 261 258 257 259 256 250 246 247 248 250 252 248 240 233 232 236 240 241 239 236 234 233 233 233 232 228 222 217 216 217 220 222 225 229 229 233 243 244 237 243 248 244 245 245 241 237 234 234 237 238 238 238 239 241 245 251 258 257 251 258 266 268 270 275 280 284 287 289 288 287 289 292 292 292